TimeEST,TemperatureF,Dew PointF,Humidity,Sea Level PressureIn,VisibilityMPH,Wind Direction,Wind SpeedMPH,Gust SpeedMPH,PrecipitationIn,Events,Conditions,WindDirDegrees,DateUTC
12:53 AM,24.1,19.9,84,30.59,10.0,Calm,Calm,-,N/A,,Clear,0,2012-11-19 05:53:00
1:53 AM,21.9,19.0,89,30.58,9.0,Calm,Calm,-,N/A,,Clear,0,2012-11-19 06:53:00
2:53 AM,21.0,17.1,85,30.58,9.0,Calm,Calm,-,N/A,,Clear,0,2012-11-19 07:53:00
3:53 AM,19.9,16.0,85,30.57,9.0,Calm,Calm,-,N/A,,Clear,0,2012-11-19 08:53:00
4:53 AM,19.0,16.0,88,30.57,9.0,Calm,Calm,-,N/A,,Clear,0,2012-11-19 09:53:00
5:53 AM,19.0,16.0,88,30.56,9.0,Calm,Calm,-,N/A,,Clear,0,2012-11-19 10:53:00
6:53 AM,18.0,14.0,84,30.55,10.0,Calm,Calm,-,N/A,,Clear,0,2012-11-19 11:53:00
7:53 AM,21.0,17.1,85,30.55,10.0,Calm,Calm,-,N/A,,Clear,0,2012-11-19 12:53:00
8:53 AM,28.9,25.0,85,30.54,6.0,Calm,Calm,-,N/A,,Clear,0,2012-11-19 13:53:00
9:53 AM,35.1,28.9,78,30.53,9.0,NE,3.5,-,N/A,,Clear,50,2012-11-19 14:53:00
10:53 AM,39.9,28.0,63,30.51,10.0,Calm,Calm,-,N/A,,Clear,0,2012-11-19 15:53:00
11:53 AM,44.1,28.9,55,30.48,10.0,Calm,Calm,-,N/A,,Clear,0,2012-11-19 16:53:00
12:53 PM,45.0,28.9,53,30.45,10.0,Calm,Calm,-,N/A,,Clear,0,2012-11-19 17:53:00
1:53 PM,46.0,28.9,51,30.42,10.0,NNW,4.6,-,N/A,,Clear,330,2012-11-19 18:53:00
2:53 PM,46.9,28.9,50,30.40,10.0,Calm,Calm,-,N/A,,Clear,0,2012-11-19 19:53:00
3:53 PM,42.1,28.9,60,30.40,10.0,East,4.6,-,N/A,,Clear,80,2012-11-19 20:53:00
4:53 PM,33.1,26.1,75,30.39,10.0,NNE,3.5,-,N/A,,Clear,20,2012-11-19 21:53:00
5:53 PM,30.0,25.0,82,30.38,10.0,Calm,Calm,-,N/A,,Clear,0,2012-11-19 22:53:00
6:53 PM,28.0,23.0,81,30.37,7.0,Calm,Calm,-,N/A,,Clear,0,2012-11-19 23:53:00
7:53 PM,26.1,23.0,88,30.36,9.0,Calm,Calm,-,N/A,,Clear,0,2012-11-20 00:53:00
8:53 PM,25.0,21.0,85,30.34,8.0,Calm,Calm,-,N/A,,Clear,0,2012-11-20 01:53:00
9:53 PM,23.0,19.9,88,30.33,10.0,Calm,Calm,-,N/A,,Clear,0,2012-11-20 02:53:00
10:53 PM,23.0,19.9,88,30.31,9.0,Calm,Calm,-,N/A,,Clear,0,2012-11-20 03:53:00
11:53 PM,23.0,19.9,88,30.30,7.0,Calm,Calm,-,N/A,,Clear,0,2012-11-20 04:53:00